| time (UTC) | temp F | wind direction | speed MPH | gust MPH | rain 1hr in | rain 24hr in | rain mn in | humidity % | barometer mb |
| 20260506044535 | 60 | 283 | 10.0 | 20.0 | 0.00 | 0.00 | 0.00 | 72 | 1015.6 |
| 20260506041536 | 60 | 286 | 13.0 | 25.0 | 0.00 | 0.00 | 0.00 | 71 | 1015.1 |
| 20260506040044 | 61 | 286 | 11.0 | 24.0 | 0.00 | 0.00 | 0.00 | 70 | 1014.9 |
| 20260506034534 | 61 | 291 | 11.0 | 22.0 | 0.00 | 0.00 | 0.00 | 70 | 1014.7 |
| 20260506033150 | 61 | 287 | 11.0 | 28.0 | 0.00 | 0.00 | 0.00 | 69 | 1014.5 |
| 20260506031532 | 62 | 284 | 11.0 | 26.0 | 0.00 | 0.00 | 0.00 | 68 | 1014.2 |
| 20260506030037 | 63 | 290 | 11.0 | 25.0 | 0.00 | 0.00 | 0.00 | 67 | 1014.0 |
| 20260506024543 | 63 | 292 | 13.0 | 23.0 | 0.00 | 2.56 | 0.00 | 66 | 1013.8 |
| 20260506024536 | 64 | 289 | 10.0 | 23.0 | 0.00 | 2.56 | 0.00 | 65 | 1014.0 |
| 20260506021537 | 64 | 285 | 9.0 | 22.0 | 0.00 | 2.56 | 0.00 | 64 | 1014.1 |
| 20260506011536 | 67 | 286 | 6.0 | 16.0 | 0.00 | 2.56 | 0.00 | 60 | 1013.9 |
| 20260506010036 | 67 | 270 | 6.0 | 14.0 | 0.00 | 2.56 | 0.00 | 60 | 1013.8 |
| 20260506004535 | 67 | 261 | 8.0 | 23.0 | 0.00 | 2.56 | 0.00 | 59 | 1013.8 |
| 20260506003046 | 68 | 262 | 7.0 | 21.0 | 0.00 | 2.56 | 0.00 | 58 | 1013.7 |
| 20260506001534 | 69 | 263 | 8.0 | 21.0 | 0.00 | 2.56 | 0.00 | 58 | 1013.6 |
| 20260506000109 | 69 | 281 | 9.0 | 18.0 | 0.00 | 2.56 | 0.00 | 58 | 1013.7 |
| 20260505233121 | 70 | 287 | 9.0 | 19.0 | 0.00 | 2.56 | 0.00 | 56 | 1013.9 |
| 20260505233109 | 69 | 287 | 10.0 | 18.0 | 0.00 | 2.56 | 0.00 | 57 | 1013.9 |
| 20260505224537 | 69 | 287 | 12.0 | 26.0 | 0.00 | 2.56 | 0.00 | 57 | 1014.0 |
| 20260505223035 | 69 | 286 | 12.0 | 24.0 | 0.00 | 2.56 | 0.00 | 57 | 1014.1 |
| 20260505221533 | 69 | 289 | 11.0 | 24.0 | 0.00 | 2.56 | 0.00 | 57 | 1014.3 |
| 20260505220033 | 69 | 285 | 11.0 | 22.0 | 0.00 | 2.56 | 0.00 | 57 | 1014.4 |
| 20260505213143 | 68 | 291 | 14.0 | 26.0 | 0.00 | 2.56 | 0.00 | 57 | 1014.6 |
| 20260505211533 | 68 | 287 | 11.0 | 25.0 | 0.00 | 2.56 | 0.00 | 57 | 1014.6 |
| 20260505210148 | 68 | 284 | 11.0 | 26.0 | 0.00 | 2.56 | 0.00 | 58 | 1014.8 |
| 20260505204536 | 68 | 286 | 12.0 | 24.0 | 0.00 | 2.56 | 0.00 | 58 | 1014.9 |
| 20260505201534 | 66 | 285 | 13.0 | 26.0 | 0.00 | 2.56 | 0.00 | 59 | 1015.1 |
| 20260505200037 | 66 | 292 | 14.0 | 25.0 | 0.00 | 2.56 | 0.00 | 59 | 1015.2 |
| 20260505194531 | 66 | 291 | 13.0 | 25.0 | 0.00 | 2.56 | 0.00 | 59 | 1015.3 |
| 20260505193143 | 66 | 285 | 11.0 | 22.0 | 0.00 | 2.56 | 0.00 | 59 | 1015.4 |
| 20260505191534 | 65 | 288 | 13.0 | 27.0 | 0.00 | 2.56 | 0.00 | 60 | 1015.4 |
| 20260505184534 | 64 | 289 | 12.0 | 22.0 | 0.00 | 2.56 | 0.00 | 62 | 1015.6 |
| 20260505183035 | 64 | 290 | 12.0 | 24.0 | 0.00 | 2.56 | 0.00 | 63 | 1015.7 |
| 20260505181611 | 63 | 290 | 14.0 | 24.0 | 0.00 | 2.56 | 0.00 | 64 | 1015.8 |
| 20260505180149 | 63 | 289 | 12.0 | 24.0 | 0.00 | 2.56 | 0.00 | 65 | 1015.7 |
| 20260505173035 | 62 | 287 | 12.0 | 29.0 | 0.00 | 2.56 | 0.00 | 67 | 1015.7 |
| 20260505171649 | 62 | 287 | 11.0 | 24.0 | 0.00 | 2.56 | 0.00 | 67 | 1015.8 |
| 20260505170035 | 61 | 291 | 11.0 | 22.0 | 0.00 | 2.56 | 0.00 | 68 | 1015.8 |
| 20260505164531 | 61 | 279 | 10.0 | 22.0 | 0.00 | 2.56 | 0.00 | 69 | 1015.7 |
| 20260505163032 | 60 | 284 | 10.0 | 20.0 | 0.00 | 2.56 | 0.00 | 70 | 1015.6 |
| 20260505161543 | 60 | 288 | 10.0 | 22.0 | 0.00 | 2.56 | 0.00 | 71 | 1015.7 |
| 20260505153034 | 59 | 279 | 7.0 | 15.0 | 0.00 | 2.56 | 0.00 | 74 | 1015.8 |
| 20260505151536 | 58 | 264 | 8.0 | 17.0 | 0.00 | 2.56 | 0.00 | 76 | 1015.6 |
| 20260505150108 | 58 | 276 | 8.0 | 17.0 | 0.00 | 2.56 | 0.00 | 76 | 1015.6 |
| 20260505140109 | 56 | 281 | 7.0 | 14.0 | 0.00 | 2.56 | 0.00 | 80 | 1015.2 |
| 20260505130111 | 56 | 281 | 8.0 | 16.0 | 0.00 | 2.56 | 0.00 | 80 | 1014.7 |
| 20260505124535 | 56 | 281 | 8.0 | 17.0 | 0.00 | 2.56 | 0.00 | 80 | 1014.6 |
| 20260505123031 | 57 | 282 | 9.0 | 18.0 | 0.00 | 2.56 | 0.00 | 78 | 1014.5 |
| 20260505121532 | 57 | 284 | 8.0 | 18.0 | 0.00 | 2.56 | 0.00 | 78 | 1014.4 |
| 20260505120035 | 57 | 287 | 8.0 | 18.0 | 0.00 | 2.56 | 0.00 | 78 | 1014.3 |
| 20260505114534 | 57 | 285 | 7.0 | 15.0 | 0.00 | 2.56 | 0.00 | 78 | 1014.2 |
| 20260505113033 | 57 | 289 | 8.0 | 18.0 | 0.00 | 2.56 | 0.00 | 77 | 1014.2 |
| 20260505111536 | 58 | 286 | 9.0 | 23.0 | 0.00 | 2.56 | 0.00 | 77 | 1014.1 |
| 20260505101608 | 58 | 284 | 9.0 | 19.0 | 0.00 | 2.56 | 0.00 | 76 | 1013.7 |
| 20260505094642 | 60 | 280 | 9.0 | 19.0 | 0.00 | 2.56 | 0.00 | 74 | 1013.5 |
| 20260505093034 | 60 | 282 | 12.0 | 25.0 | 0.00 | 2.56 | 0.00 | 74 | 1013.3 |
| 20260505091535 | 61 | 279 | 9.0 | 24.0 | 0.00 | 2.56 | 0.00 | 73 | 1013.3 |
| 20260505090035 | 61 | 273 | 8.0 | 17.0 | 0.00 | 2.56 | 0.00 | 72 | 1013.1 |
| 20260505084532 | 62 | 279 | 8.0 | 17.0 | 0.00 | 2.56 | 0.00 | 71 | 1013.0 |
| 20260505083033 | 62 | 273 | 9.0 | 17.0 | 0.00 | 2.56 | 0.00 | 71 | 1012.9 |
| 20260505081535 | 63 | 276 | 8.0 | 19.0 | 0.00 | 2.56 | 0.00 | 71 | 1012.8 |
| 20260505080035 | 63 | 282 | 9.0 | 17.0 | 0.00 | 2.56 | 0.00 | 71 | 1012.8 |
| 20260505074535 | 64 | 275 | 10.0 | 19.0 | 0.00 | 2.56 | 0.00 | 71 | 1012.6 |
| 20260505073109 | 64 | 276 | 7.0 | 18.0 | 0.00 | 2.56 | 0.00 | 70 | 1012.6 |
| 20260505071537 | 65 | 279 | 9.0 | 21.0 | 0.00 | 2.56 | 0.00 | 69 | 1012.4 |
| 20260505070111 | 66 | 284 | 10.0 | 18.0 | 0.00 | 2.56 | 0.00 | 68 | 1012.2 |
| 20260505064533 | 66 | 284 | 8.0 | 15.0 | 0.00 | 2.56 | 2.56 | 65 | 1012.1 |
| 20260505063034 | 66 | 285 | 8.0 | 18.0 | 0.00 | 2.56 | 2.56 | 65 | 1012.0 |
| 20260505061535 | 67 | 282 | 6.0 | 12.0 | 0.00 | 2.56 | 2.56 | 65 | 1012.0 |
| 20260505054536 | 67 | 266 | 5.0 | 12.0 | 0.00 | 2.56 | 2.56 | 62 | 1011.9 |
| 20260505053037 | 68 | 274 | 5.0 | 15.0 | 0.00 | 2.56 | 2.56 | 61 | 1011.8 |